Theta_e
349 346 350 349 352 349 351 351 348 343 337 336 334 336 336 336 336 337 339 339 341 342 345 352 352 351 346 343 343 344 346 351 352 352 348 343 348 348 349 350 350 350 350
348 345 350 351 351 349 348 349 348 345 345 345 343 341 341 339 341 339 340 342 341 345 352 354 352 354 353 353 353 353 352 348 343 343 342 345 348 346 346 351 350 349 350
346 346 351 349 349 351 346 348 349 348 349 350 348 347 349 349 344 346 348 349 350 350 352 353 352 353 353 352 347 351 353 347 340 333 337 339 345 346 349 348 350 350 350
348 349 350 345 345 349 346 346 348 349 349 350 349 349 350 349 349 350 349 350 351 351 352 353 353 351 350 350 339 337 347 346 345 337 334 341 347 347 345 348 349 349 348
350 349 350 347 343 347 344 347 348 351 351 350 350 351 350 350 350 350 351 350 350 350 351 351 352 351 351 345 337 332 339 344 345 343 334 345 345 349 345 350 350 350 349
350 347 350 350 349 348 348 349 350 351 352 352 351 351 350 350 349 349 349 351 351 351 351 350 350 350 351 347 340 335 337 347 347 345 342 343 340 347 346 350 350 349 349
349 346 350 351 351 349 349 351 352 352 352 352 351 350 349 349 349 349 349 349 350 350 351 351 350 350 349 346 342 336 337 348 342 345 339 343 338 348 351 350 350 348 348
348 352 353 352 352 352 353 353 353 352 352 352 349 349 349 350 350 351 350 350 351 350 351 352 353 346 346 346 346 337 337 343 340 346 342 342 339 342 349 349 347 345 345
350 348 350 353 353 353 352 351 349 352 351 351 351 352 352 353 353 349 352 351 352 351 352 351 352 352 348 345 344 340 337 342 344 344 347 342 341 342 348 348 350 349 345
347 346 348 345 350 350 352 353 347 351 351 352 350 348 350 350 349 352 347 344 351 353 351 352 347 346 347 347 344 344 344 346 343 345 345 343 338 342 339 345 347 341 343
349 348 347 346 349 345 345 353 350 348 347 346 348 347 345 343 345 348 346 347 345 351 353 352 349 347 346 346 346 346 345 340 345 342 343 342 335 333 349 348 347 339 340
349 349 349 346 348 352 348 345 341 342 343 344 343 343 345 345 347 349 350 349 345 343 351 345 341 346 347 344 348 348 346 347 347 345 345 341 339 336 345 348 344 339 340
347 348 348 348 350 352 352 342 340 341 348 350 351 352 349 350 349 352 350 346 341 339 344 347 348 348 349 349 348 346 347 349 347 346 344 342 339 338 338 339 343 336 340
346 347 348 349 351 352 353 346 349 348 350 352 352 352 352 350 350 351 350 347 348 349 350 351 348 349 349 349 347 349 349 348 348 346 345 342 342 340 339 344 340 332 331
346 346 348 349 350 353 349 348 351 350 350 352 347 347 348 348 348 348 348 350 349 351 349 349 348 349 347 347 348 349 348 346 347 347 344 345 346 339 340 342 337 341 339
343 343 344 347 346 350 346 345 347 349 347 349 348 345 346 349 350 349 350 350 350 350 350 349 349 349 349 347 349 350 349 349 348 348 348 347 347 342 340 343 339 343 337
343 344 344 346 345 345 347 342 342 344 344 347 349 347 346 345 348 351 351 351 350 349 350 348 345 347 345 348 349 346 348 348 345 348 350 350 349 347 345 345 339 342 342
344 344 345 345 346 345 349 347 342 343 344 346 349 349 351 350 352 354 353 352 352 350 350 350 347 343 345 349 349 347 345 346 350 350 352 352 350 349 347 347 340 340 340
344 344 346 346 345 349 350 351 349 352 351 348 350 350 352 354 356 355 355 355 353 352 350 350 349 345 345 350 352 348 348 349 350 348 351 351 350 349 349 347 347 344 344
342 343 342 345 346 347 351 350 351 352 351 350 351 351 352 354 357 357 356 356 356 354 349 350 349 346 346 351 350 349 350 350 353 352 351 351 351 351 349 349 349 347 347
343 344 344 348 345 346 349 350 352 351 350 351 352 352 352 355 357 357 355 356 355 352 350 349 349 346 350 349 351 352 350 354 352 350 349 351 352 351 351 348 346 347 347
343 345 346 348 346 348 348 349 350 351 352 353 353 352 352 355 357 358 357 358 351 353 351 350 351 352 349 352 353 352 347 349 349 350 350 351 351 351 350 349 349 347 345
347 346 348 350 350 351 352 352 352 352 355 354 351 341 338 346 356 359 358 352 353 356 353 350 351 353 351 352 351 350 345 345 347 350 349 350 350 349 348 348 349 348 348
348 347 348 350 349 348 349 351 352 355 355 353 347 337 342 352 353 359 358 356 353 355 352 353 351 350 353 353 352 351 349 346 345 344 350 350 348 349 347 348 347 347 344
350 350 349 350 350 349 348 354 353 354 353 356 353 352 351 353 356 355 355 355 354 355 353 354 355 355 355 353 351 352 351 351 349 348 344 349 348 348 347 346 343 342 342
352 353 351 351 351 351 350 349 353 358 353 356 357 355 354 355 360 357 356 353 351 353 354 353 351 352 345 345 344 343 341 339 341 338 336 339 346 346 344 342 341 340 339
Wind_Speed
15 15 18 21 24 25 22 21 21 21 21 20 21 20 19 21 21 20 19 18 19 19 20 19 19 20 22 21 19 21 19 19 20 20 19 17 14 13 17 17 18 18 18
22 19 19 23 21 24 24 22 21 20 19 17 18 18 18 18 17 16 16 16 17 17 17 16 18 17 17 17 16 17 16 15 19 18 18 17 15 15 13 17 17 17 17
24 23 22 23 24 20 25 22 19 19 18 15 16 17 16 15 15 14 14 14 14 14 14 13 16 15 13 13 13 14 13 10 9 6 13 15 15 13 15 15 16 16 16
26 24 24 22 24 22 22 21 19 17 15 13 14 15 14 14 14 12 12 13 13 13 12 11 13 13 11 11 11 12 13 7 7 15 10 13 14 12 15 17 16 16 15
27 24 24 22 22 21 22 19 17 15 14 13 12 12 12 12 12 10 10 10 12 12 10 9 10 10 9 8 9 10 12 7 4 3 12 16 14 12 15 16 17 15 15
29 26 24 22 21 20 19 17 15 14 13 12 11 10 10 9 10 8 8 7 9 9 8 8 8 9 7 6 7 7 6 9 8 2 10 12 11 14 14 15 14 15 14
28 26 23 21 20 19 17 16 15 14 12 11 10 9 9 8 8 7 6 6 6 7 7 7 7 7 5 4 5 5 4 5 6 5 10 14 14 16 15 16 15 14 14
33 26 22 21 20 18 16 14 14 12 11 11 10 9 8 8 7 8 8 7 6 6 6 7 7 5 5 4 4 4 5 6 15 10 12 12 13 14 15 15 16 16 15
31 29 24 21 18 17 16 15 13 12 11 11 10 9 8 7 7 7 8 8 8 7 6 7 7 6 4 4 4 5 6 6 6 9 14 13 12 14 15 15 15 16 16
29 29 25 23 21 18 16 14 13 12 12 11 11 10 8 7 6 7 7 8 8 9 7 6 5 6 5 5 4 4 4 5 8 8 10 15 14 14 15 16 17 15 15
31 28 26 24 21 19 17 16 13 13 12 11 10 10 9 9 9 6 7 7 6 8 8 8 7 6 6 6 5 6 8 9 10 15 13 18 14 13 15 14 14 14 13
32 32 27 25 25 23 18 17 15 13 13 13 11 8 10 4 8 10 8 7 7 7 8 8 6 6 6 5 5 8 6 4 6 16 16 13 9 11 15 15 14 12 11
33 32 31 26 27 25 18 18 17 16 13 12 12 9 6 8 9 10 8 5 5 7 8 8 7 6 6 6 5 8 11 9 4 7 18 18 13 11 12 13 14 14 11
33 34 31 29 31 27 21 19 17 16 15 13 13 14 7 9 14 13 14 6 6 7 7 10 9 6 9 10 6 5 7 5 6 15 20 22 9 16 16 15 15 15 14
29 33 32 30 28 26 19 15 16 16 18 16 14 11 7 6 6 12 12 9 7 7 9 9 9 9 9 11 8 5 11 4 5 13 16 15 4 16 19 20 19 18 17
32 29 29 24 20 23 15 10 10 12 11 20 18 11 9 6 8 8 7 9 9 11 11 7 7 10 6 7 6 5 7 6 6 8 9 10 8 13 21 17 22 19 22
29 32 31 26 20 16 10 12 8 8 4 10 11 14 9 8 7 8 9 9 11 12 10 10 10 11 10 7 9 9 7 7 10 9 11 11 10 13 16 15 21 22 22
34 34 28 23 22 17 12 12 14 13 10 7 7 8 8 7 9 8 10 11 9 11 10 12 9 8 5 5 7 6 8 8 7 7 12 12 12 12 16 14 18 20 22
37 33 29 26 24 20 17 10 15 11 11 8 7 7 8 5 5 6 8 12 11 10 8 12 11 10 5 5 6 7 7 8 9 7 8 11 15 12 11 8 15 19 19
35 31 26 29 25 24 21 11 10 10 12 8 7 8 5 7 8 6 7 9 8 8 4 6 11 7 5 4 7 8 10 7 6 4 3 5 12 11 8 7 9 13 18
36 31 27 23 29 25 23 17 12 12 9 13 10 5 5 6 6 6 7 2 3 6 6 4 7 6 4 5 5 2 3 5 4 2 3 5 7 10 8 6 4 4 6
38 33 28 24 31 24 21 15 16 14 10 8 3 8 10 8 5 6 3 1 1 6 5 5 4 0 2 1 2 2 2 3 2 4 5 4 9 7 7 7 6 3 2
34 36 31 29 30 25 19 15 16 14 13 15 13 2 10 5 5 4 3 3 7 4 5 5 4 1 1 2 1 1 2 1 1 5 6 10 11 9 7 6 7 8 5
34 38 35 31 30 25 21 21 20 15 9 12 3 7 11 8 6 5 4 3 4 3 4 4 1 1 1 2 3 2 0 1 2 2 4 11 12 10 9 12 11 8 5
35 36 39 34 31 27 25 23 19 17 14 14 16 17 12 11 7 6 6 6 4 5 4 3 4 4 4 4 5 2 2 4 2 2 1 3 11 10 13 10 8 11 9
35 34 38 38 34 30 26 28 24 19 19 10 13 18 15 10 14 10 10 9 6 5 8 9 9 8 8 7 11 18 13 8 6 6 3 3 11 12 15 13 13 14 10
Wind_Direction
147 139 128 131 127 128 123 119 113 109 105 102 100 95 92 92 95 96 98 99 94 92 90 93 93 93 101 106 101 90 91 94 96 95 91 92 87 94 107 106 101 109 110
150 143 133 130 129 130 126 120 118 113 105 102 102 101 97 100 99 100 102 99 96 93 93 96 96 96 100 100 98 96 100 108 104 97 95 94 94 92 127 107 108 109 107
144 144 138 135 131 130 127 123 121 114 111 109 106 105 104 101 99 98 98 99 97 96 97 100 98 99 100 99 99 98 101 106 76 135 106 102 99 101 118 118 113 111 110
142 144 139 139 136 133 127 126 122 120 119 117 109 111 111 103 99 99 99 102 102 101 100 104 100 99 99 99 97 102 108 109 102 79 132 111 105 108 120 120 117 115 113
141 144 141 142 140 135 130 129 127 126 126 124 121 119 114 111 106 105 102 104 106 106 109 110 110 108 109 106 97 102 117 105 31 125 120 118 116 119 124 124 120 116 117
143 146 143 140 140 138 136 135 134 134 134 131 131 129 127 127 121 123 117 117 116 117 125 126 123 116 120 121 104 105 100 70 76 100 138 124 128 131 131 132 121 121 118
139 142 140 138 137 138 141 141 138 141 140 139 139 148 146 147 145 142 141 140 136 139 147 144 141 138 145 140 122 100 105 66 77 74 169 152 152 145 144 140 137 132 129
135 134 135 137 138 136 141 142 142 147 148 154 161 167 169 168 171 167 165 157 158 163 165 163 156 146 160 184 167 139 128 86 107 109 157 158 154 153 152 145 142 141 135
135 137 140 138 137 141 142 145 148 150 156 166 169 171 170 173 184 182 179 174 176 177 174 170 165 166 174 185 189 179 158 156 127 140 160 164 166 159 155 151 154 144 138
142 141 144 148 150 152 151 155 157 167 177 176 178 180 178 182 183 189 189 175 181 186 193 205 183 181 193 225 226 226 215 200 183 177 191 177 181 170 168 166 161 151 147
149 148 151 156 156 156 160 161 165 172 177 178 184 188 187 191 185 174 189 188 186 196 202 209 199 196 200 224 251 263 255 237 207 200 202 174 175 179 172 170 170 158 157
159 159 160 159 161 164 168 172 174 176 178 178 176 181 177 174 188 192 194 204 216 201 211 218 205 205 208 200 241 262 269 270 284 199 181 175 175 187 178 176 171 165 168
162 161 168 165 165 167 175 175 173 178 178 186 185 200 217 204 187 188 205 209 204 205 209 229 244 235 225 218 260 252 237 253 217 193 194 176 180 195 194 203 182 169 169
147 163 165 168 168 174 186 177 181 183 188 197 195 202 232 230 216 207 220 224 230 228 234 235 250 235 232 253 237 248 202 226 192 178 194 182 227 193 195 204 207 202 197
149 154 147 157 167 174 181 184 198 207 209 200 189 194 198 199 223 207 210 218 229 233 243 233 227 210 228 257 243 242 227 243 202 178 189 215 270 200 200 207 215 207 207
150 150 151 146 154 163 166 180 171 194 189 202 193 177 192 209 223 198 204 232 237 235 243 217 214 223 239 219 228 269 267 234 246 217 261 234 227 211 219 229 212 222 215
154 155 158 160 163 170 162 196 180 166 152 178 201 207 188 210 215 238 249 251 262 270 250 258 252 244 261 259 260 264 252 253 260 257 258 266 234 233 233 243 214 218 231
149 152 158 167 172 173 182 201 190 172 207 214 207 197 204 202 224 251 273 285 290 286 277 232 246 240 250 268 275 268 257 258 238 244 255 251 252 241 228 237 224 224 231
155 155 161 165 169 175 184 182 186 216 227 211 195 202 219 235 254 268 283 297 313 314 288 241 245 224 234 268 278 276 269 266 269 248 233 237 238 253 238 245 241 235 239
155 157 162 169 174 173 178 187 200 231 199 205 195 236 228 241 243 262 293 302 325 342 358 187 203 209 240 273 289 275 276 271 237 239 250 266 234 256 257 251 253 250 244
156 159 165 161 174 173 177 184 216 236 210 207 201 195 242 234 251 280 284 14 3 23 69 107 175 203 246 269 271 322 303 252 249 328 234 236 206 192 184 179 207 219 222
162 165 167 168 170 175 178 189 203 220 227 204 124 224 202 233 227 270 261 236 79 70 95 109 130 136 283 343 257 309 15 14 69 203 218 175 187 181 166 167 154 125 143
162 168 171 175 170 174 179 193 213 228 223 173 150 330 149 206 229 222 221 76 100 96 84 118 127 50 330 32 31 101 60 220 332 170 165 186 163 156 148 141 130 124 134
168 173 177 182 184 192 191 201 216 224 216 134 191 225 210 175 204 203 190 112 84 126 117 109 95 130 65 56 106 69 21 236 141 359 195 170 162 152 136 136 132 108 106
169 173 180 184 187 192 196 202 214 222 223 199 212 222 184 193 201 216 161 146 115 106 131 106 117 86 83 63 21 355 231 246 301 101 324 170 139 142 136 134 123 110 103
171 174 180 186 191 193 198 208 213 217 227 215 179 190 193 176 184 202 173 147 162 155 145 133 127 129 108 93 67 55 60 64 36 50 76 17 148 118 110 109 104 94 80